Погода в Конгсберге

Норвегия     59°40′00″N   9°39′01″E
темп.,
°C
ветер,
м/с
пор.,
м/с
влажн.,
%
обл.,
%
осадки,
мм/ч
давл.,
гПа
погр.,
м
14 апреля, ср
ср1423:00−3з11855 0.0 102514
02:00−3з118453 0.0 102622
05:00−4зсз11825 0.0 102726
08:00−1зсз11625 0.0 1027144
11:00+4ссз11445 0.0 1028730
14:00+7ссв12395 0.0 10291303
17:00+7св124134 0.0 10291687
20:00+3ссв116312 0.0 103112
15 апреля, чт
чт1523:000ссз11825 0.0 103412
02:00−1сз11845 0.0 103514
05:00−1ссз11844 0.0 103622
08:00+1ссз12714 0.0 1036159
11:00+6ссв12546 0.0 1036778
14:00+7св124557 0.0 10361257
17:00+8ссв224464 0.0 10351326
20:00+5ссв116145 0.0 103510
16 апреля, пт
пт1623:00+2ссз11755 0.0 103614
02:000сз21851 0.0 103614
05:000ссз22835 0.0 103620
08:00+2ссз2371100 0.0 1036147
11:00+6ссв2257100 0.0 1035589
14:00+8ссв2247100 0.0 10341255
17:00+8ссв2247100 0.0 10331349
20:00+6с226699 0.0 103436
17 апреля, сб
сб1723:00+3ссз2281100 0.0 103534
02:00+3ссз2381100 0.0 103582
05:00+2ссз2283100 0.0 103448
08:00+3ссв1279100 0.0 1034121
11:00+5св1179100 0.0 1034529
14:00+6ссв227595 0.1 1033712
17:00+8всв125987 0.1 1031963
20:00+6св117157 0.1 103011
18 апреля, вс
вс1823:00+4ссз118199 0.0 103110
02:00+3с1186100 0.0 103010
05:00+2ссв0089100 0.0 103010
08:00+3в0181100 0.0 102974
11:00+7юв1266100 0.0 1028692
14:00+8юв2461100 0.0 10271135
17:00+10ююв2452100 0.0 10251309
20:00+7ююв2367100 0.0 102570